Weather Roundup
Issued by NWS Chicago, IL

Home | Current Version | Previous Version | Text Only | Print | Product List | Glossary On
Versions: 1 2 3 4 5 6 7 8 9 10 11 12 13 14 15 16 17 18 19 20 21 22 23 24 25 26 27 28 29 30 31 32 33 34 35 36 37 38 39 40 41 42 43 44 45 46 47 48 49 50
093
NZUS59 KLOT 221721
HRRLOT

CHICAGO AREA WEATHER ROUNDUP
NATIONAL WEATHER SERVICE CHICAGO/ROMEOVILLE IL
1200 PM CDT FRI MAY 22 2015

NOTE: "FAIR" INDICATES FEW OR NO CLOUDS BELOW 12,000 FEET WITH NO
SIGNIFICANT WEATHER AND/OR OBSTRUCTIONS TO VISIBILITY.

* THESE STATIONS ARE NOT UNDER NWS QUALITY CONTROL. THEY ALSO MAY NOT
  REPORT WEATHER SUCH AS PRECIPITATION OR FOG.

ILZ005-006-012>014-019>023-221800-
NORTHEAST ILLINOIS

CITY           SKY/WX    TMP DP  RH WIND       PRES   REMARKS
OHARE          MOSUNNY   62  30  29 E9        30.23R
MIDWAY         MOSUNNY   65  37  35 E9        30.24R
AURORA         SUNNY     70  37  29 NE6       30.22S
LANSING*       SUNNY     63  44  51 N9        30.23S
JOLIET*        SUNNY     70  45  40 NE3       30.22R
WAUKEGAN       SUNNY     56  31  38 NE9       30.25R
DUPAGE AIRPORT SUNNY     66  37  34 NE8       30.22S
WHEELING       SUNNY     59  30  33 NE12      30.26R
KANKAKEE*      SUNNY     71  42  35 CALM      30.21R
MORRIS*        SUNNY     71  35  27 N5        30.20R
LEWIS AIRPORT* SUNNY     68  39  34 NE3       30.22R
NORTHERLY IS     N/A     52  38  58 N13         N/A
$$

WIZ051-052-058>065-066-070>072-221800-
SOUTHEAST WISCONSIN

CITY           SKY/WX    TMP DP  RH WIND       PRES   REMARKS
MILWAUKEE      SUNNY     54  30  40 E7        30.27R
KENOSHA*       SUNNY     59  31  34 E7        30.26R
RACINE*        SUNNY     56  29  35 NE7       30.28R
BURLINGTON     SUNNY     63  29  28 CALM      30.24R
WAUKESHA       SUNNY     61  30  31 E6        30.25R
WEST BEND      SUNNY     61  28  29 CALM      30.24R
$$

INZ001>003-010>013-019-020-221800-
NORTHWEST INDIANA

CITY           SKY/WX    TMP DP  RH WIND       PRES   REMARKS
GARY*          MOSUNNY   57  43  58 N7        30.25R
MICHIGAN CITY* NOT AVBL
RENSSELAER*    NOT AVBL
VALPARAISO     MOSUNNY   69  43  38 N5        30.22R
$$

LMZ740>746-221800-
SOUTHERN LAKE MICHIGAN

STATION/POSITION TIME  SKY/WX   TEMP WIND        PRES    VSBY
                                AIR  DIR/SP/G
                 (UTC)          (F)  (DEG/KT/KT) (MB)    (MI)
HARRISON CRIB    1700            47  360/ 11/ 13   N/A
BURNHAM HARBOR   1700            53  360/  9/ 12   N/A
CALUMET HARBOR   1600            52  350/  8/ 12   N/A
BURNS HARBOR     1600            51   20/  5/  6 1024.0R
MICHIGAN CITY    1700            50  350/ 13/ 15   N/A
$$

ABBREVIATIONS USED IN REMARKS
   TC - TEMPERATURE IN CELSIUS
  WCI - WIND CHILL INDEX
   HX - HEAT INDEX
  VSB - VISIBILITY
$$



USA.gov is the U.S. government's official web portal to all federal, state and local government web resources and services.